Project,Study,Ord_Occ,Event_Num,Cast_ID,Date_Time_UTC,Date_Time_PST,Lat_Dec,Lon_Dec,Sta_ID,Line,Sta,Depth,Pressure,PrQ,Temp1,Temp1Q,Temp2,Temp2Q,TempAve,Salt1,Salt1Q,Salt1_Corr,Salt2,Salt2Q,Salt2_Corr,SaltAve_Corr,Ox1,Ox1Q,Ox1_CruiseCorr,Ox1_StaCorr,Ox2,Ox2Q,Ox2_CruiseCorr,Ox2_StaCorr,OxAve_StaCorr,Ox1uM,Ox1uM_CruiseCorr,Ox1uM_StaCorr,Ox2uM,Ox2uM_CruiseCorr,Ox2uM_StaCorr,OxAveuM_StaCorr,FluorV,FluorQ,EstChl_CruiseCorr,EstChl_StaCorr,ISUSV,ISUSQ,EstNO3_CruiseCorr,EstNO3_StaCorr,SigThetaTS1,SigThetaTS1Q,SigThetaTS2,SigThetaTS2Q,BAT,XMiss,TransQ,pH,pHQ,SPAR,SPARQ,PAR,PARQ,PoT1,PoT2,DynHt,SVA,OxSat1,OxSat2,BTL_Depth,BTL_Temp,SaltB,OxB,OxBuM,Chl-a,Phaeo,NO3,NO2,NH4,PO4,SIL
CalCOFI,2105SH,019,,2105_019d,08-May-2021 09:47:38,08-May-2021 01:47:38,32.64856,-119.48302,090.0 053.0,090.0,053.0,4.000,4.028,,13.4080,,13.4089,,13.4085,33.8113,,33.8125,33.8110,,33.8129,33.8127,5.7404,,6.0694,6.1468,6.0186,,6.2935,6.1821,6.1645,250.021,263.8708,261.4472,262.135,275.1519,266.8150,264.1311,0.6706,,3.8283,4.1592,2.6574,,3.0700,,25.3903,,25.3898,,,,,,,,,,,13.4074,13.4083,0.0012,257.753,96.940,101.639,4,13.370,33.8034,6.225,271.12,3.951,1.427,4.63,0.128,0.79,0.60,2.48
CalCOFI,2105SH,019,,2105_019d,08-May-2021 09:47:55,08-May-2021 01:47:55,32.64852,-119.48308,090.0 053.0,090.0,053.0,5.000,5.035,,13.4075,,13.4082,,13.4079,33.8113,,33.8125,33.8110,,33.8129,33.8127,5.8669,,6.2017,6.2819,6.0118,,6.2864,6.1751,6.2285,255.527,269.6267,267.1544,261.841,281.0984,266.5189,266.8367,0.6545,,3.7562,4.0577,2.6567,,3.0700,,25.3904,,25.3900,,,,,,,,,,,13.4069,13.4075,0.0097,257.766,99.074,101.523,,,,,,,,,,,,
CalCOFI,2105SH,019,,2105_019d,08-May-2021 09:47:57,08-May-2021 01:47:57,32.64852,-119.48308,090.0 053.0,090.0,053.0,6.000,6.042,,13.4072,,13.4074,,13.4073,33.8115,,33.8127,33.8109,,33.8128,33.8128,5.8339,,6.1672,6.2467,6.0200,,6.2949,6.1835,6.2151,254.093,268.1276,265.6680,262.195,279.5496,266.8754,266.2717,0.6636,,3.7971,4.1151,2.6566,,3.0700,,25.3906,,25.3902,,,,,,,,,,,13.4064,13.4065,0.0123,257.775,98.518,101.659,,,,,,,,,,,,
CalCOFI,2105SH,019,,2105_019d,08-May-2021 09:47:59,08-May-2021 01:47:59,32.64852,-119.48308,090.0 053.0,090.0,053.0,7.000,7.050,,13.4042,,13.4036,,13.4039,33.8113,,33.8125,33.8105,,33.8124,33.8125,5.8417,,6.1753,6.2550,6.0247,,6.2998,6.1883,6.2217,254.431,268.4810,266.0184,262.399,279.9147,267.0809,266.5497,0.6985,,3.9503,4.3350,2.6566,,3.0700,,25.3911,,25.3906,,,,,,,,,,,13.4032,13.4026,0.0149,257.759,98.642,101.730,,,,,,,,,,,,
CalCOFI,2105SH,019,,2105_019d,08-May-2021 09:48:00,08-May-2021 01:48:00,32.64852,-119.48308,090.0 053.0,090.0,053.0,8.000,8.057,,13.4039,,13.4048,,13.4044,33.8107,,33.8119,33.8105,,33.8124,33.8122,5.8705,,6.2055,6.2858,6.0154,,6.2902,6.1788,6.2323,255.685,269.7919,267.3182,261.996,281.2690,266.6750,266.9966,0.6973,,3.9451,4.3274,2.6566,,3.0700,,25.3907,,25.3904,,,,,,,,,,,13.4028,13.4036,0.0175,257.822,99.128,101.576,,,,,,,,,,,,
CalCOFI,2105SH,019,,2105_019d,08-May-2021 09:48:03,08-May-2021 01:48:03,32.64852,-119.48310,090.0 053.0,090.0,053.0,9.000,9.064,,13.4050,,13.4054,,13.4052,33.8109,,33.8121,33.8106,,33.8125,33.8123,5.8609,,6.1954,6.2755,6.0181,,6.2929,6.1816,6.2286,255.264,269.3518,266.8818,262.112,280.8143,266.7918,266.8368,0.6144,,3.5713,3.8050,2.6564,,3.0700,,25.3907,,25.3904,,,,,,,,,,,13.4037,13.4042,0.0201,257.851,98.967,101.623,,,,,,,,,,,,
CalCOFI,2105SH,019,,2105_019d,08-May-2021 09:48:06,08-May-2021 01:48:06,32.64850,-119.48310,090.0 053.0,090.0,053.0,10.000,10.071,,13.4051,,13.4058,,13.4055,33.8108,,33.8120,33.8106,,33.8125,33.8123,5.8789,,6.2143,6.2947,6.0161,,6.2909,6.1795,6.2371,256.050,270.1735,267.6965,262.025,281.6632,266.7042,267.2004,0.6125,,3.5623,3.7930,2.6561,,3.0700,,25.3907,,25.3904,,,,,,,,,,,13.4037,13.4044,0.0227,257.884,99.272,101.590,,,,,,,,,,,,
CalCOFI,2105SH,019,,2105_019d,08-May-2021 09:48:07,08-May-2021 01:48:07,32.64848,-119.48311,090.0 053.0,090.0,053.0,11.000,11.078,,13.4047,,13.4051,,13.4049,33.8109,,33.8121,33.8107,,33.8126,33.8124,5.8740,,6.2091,6.2895,6.0125,,6.2871,6.1759,6.2327,255.839,269.9529,267.4778,261.869,281.4353,266.5471,267.0125,0.6451,,3.7136,3.9985,2.6558,,3.0700,,25.3908,,25.3906,,,,,,,,,,,13.4032,13.4036,0.0253,257.895,99.189,101.528,11,13.371,,,270.69,4.182,1.747,4.44,0.125,0.79,0.54,2.20
CalCOFI,2105SH,019,,2105_019d,08-May-2021 09:48:09,08-May-2021 01:48:09,32.64848,-119.48312,090.0 053.0,090.0,053.0,12.000,12.085,,13.4030,,13.4030,,13.4030,33.8109,,33.8121,33.8103,,33.8122,33.8122,5.8722,,6.2072,6.2876,6.0154,,6.2902,6.1788,6.2332,255.759,269.8693,267.3949,261.995,281.3489,266.6740,267.0345,0.6566,,3.7657,4.0710,2.6555,,3.0700,,25.3912,,25.3907,,,,,,,,,,,13.4014,13.4013,0.0278,257.892,99.155,101.572,,,,,,,,,,,,
CalCOFI,2105SH,019,,2105_019d,08-May-2021 09:48:10,08-May-2021 01:48:10,32.64848,-119.48312,090.0 053.0,090.0,053.0,13.000,13.092,,13.3992,,13.4010,,13.4001,33.8104,,33.8116,33.8103,,33.8122,33.8119,5.8750,,6.2102,6.2906,6.0106,,6.2852,6.1739,6.2323,255.881,269.9968,267.5214,261.785,281.4807,266.4625,266.9920,0.6799,,3.8694,4.2178,2.6553,,3.0700,,25.3916,,25.3912,,,,,,,,,,,13.3974,13.3992,0.0304,257.880,99.194,101.487,,,,,,,,,,,,
CalCOFI,2105SH,019,,2105_019d,08-May-2021 09:48:13,08-May-2021 01:48:13,32.64848,-119.48312,090.0 053.0,090.0,053.0,14.000,14.099,,13.4038,,13.4045,,13.4042,33.8106,,33.8118,33.8105,,33.8124,33.8121,5.8732,,6.2083,6.2886,6.0146,,6.2893,6.1780,6.2333,255.800,269.9121,267.4374,261.959,281.3932,266.6377,267.0376,0.6351,,3.6677,3.9355,2.6546,,3.0700,,25.3909,,25.3906,,,,,,,,,,,13.4018,13.4025,0.0331,257.977,99.172,101.562,,,,,,,,,,,,
CalCOFI,2105SH,019,,2105_019d,08-May-2021 09:48:16,08-May-2021 01:48:16,32.64848,-119.48312,090.0 053.0,090.0,053.0,15.000,15.107,,13.4033,,13.4039,,13.4036,33.8108,,33.8120,33.8103,,33.8122,33.8121,5.8632,,6.1978,6.2780,6.0114,,6.2860,6.1747,6.2264,255.367,269.4595,266.9886,261.823,280.9256,266.5008,266.7447,0.6399,,3.6898,3.9657,2.6538,,3.0700,,25.3911,,25.3907,,,,,,,,,,,13.4013,13.4018,0.0358,257.981,99.004,101.507,,,,,,,,,,,,
CalCOFI,2105SH,019,,2105_019d,08-May-2021 09:48:17,08-May-2021 01:48:17,32.64846,-119.48314,090.0 053.0,090.0,053.0,16.000,16.114,,13.3999,,13.4001,,13.4000,33.8103,,33.8115,33.8103,,33.8122,33.8119,5.8392,,6.1727,6.2523,6.0094,,6.2839,6.1727,6.2125,254.320,268.3649,265.9033,261.736,279.7948,266.4131,266.1582,0.6558,,3.7621,4.0659,2.6535,,3.0700,,25.3914,,25.3914,,,,,,,,,,,13.3977,13.3979,0.0384,257.980,98.590,101.466,,,,,,,,,,,,
CalCOFI,2105SH,019,,2105_019d,08-May-2021 09:48:18,08-May-2021 01:48:18,32.64846,-119.48314,090.0 053.0,090.0,053.0,17.000,17.121,,13.4008,,13.4031,,13.4020,33.8104,,33.8116,33.8102,,33.8121,33.8119,5.8478,,6.1817,6.2615,6.0151,,6.2898,6.1785,6.2200,254.697,268.7590,266.2941,261.983,280.2020,266.6619,266.4780,0.6686,,3.8194,4.1466,2.6532,,3.0700,,25.3914,,25.3908,,,,,,,,,,,13.3985,13.4007,0.0410,258.009,98.739,101.568,,,,,,,,,,,,
CalCOFI,2105SH,019,,2105_019d,08-May-2021 09:48:19,08-May-2021 01:48:19,32.64846,-119.48316,090.0 053.0,090.0,053.0,18.000,18.128,,13.4059,,13.4069,,13.4064,33.8101,,33.8113,33.8108,,33.8127,33.8120,5.8658,,6.2006,6.2807,6.0123,,6.2869,6.1756,6.2282,255.480,269.5776,267.1057,261.859,281.0476,266.5370,266.8214,0.6775,,3.8588,4.2027,2.6529,,3.0700,,25.3901,,25.3905,,,,,,,,,,,13.4034,13.4044,0.0436,258.160,99.052,101.528,,,,,,,,,,,,
CalCOFI,2105SH,019,,2105_019d,08-May-2021 09:48:21,08-May-2021 01:48:21,32.64846,-119.48316,090.0 053.0,090.0,053.0,19.000,19.135,,13.4083,,13.4078,,13.4081,33.8108,,33.8120,33.8106,,33.8125,33.8123,5.8612,,6.1957,6.2758,6.0050,,6.2794,6.1682,6.2220,255.281,269.3696,266.8994,261.544,280.8327,266.2197,266.5596,0.6244,,3.6181,3.8680,2.6521,,3.0700,,25.3903,,25.3902,,,,,,,,,,,13.4056,13.4052,0.0462,258.174,98.980,101.408,,,,,,,,,,,,
CalCOFI,2105SH,019,,2105_019d,08-May-2021 09:48:24,08-May-2021 01:48:24,32.64844,-119.48316,090.0 053.0,090.0,053.0,20.000,20.142,,13.3926,,13.3900,,13.3913,33.8103,,33.8115,33.8091,,33.8110,33.8113,5.8956,,6.2317,6.3126,6.0156,,6.2904,6.1790,6.2458,256.776,270.9324,268.4491,262.003,282.4473,266.6820,267.5656,0.6115,,3.5576,3.7867,2.6511,,3.0700,,25.3931,,25.3927,,,,,,,,,,,13.3898,13.3872,0.0488,257.938,99.528,101.548,,,,,,,,,,,,
CalCOFI,2105SH,019,,2105_019d,08-May-2021 09:48:26,08-May-2021 01:48:26,32.64844,-119.48316,090.0 053.0,090.0,053.0,21.000,21.150,,13.3990,,13.4007,,13.3999,33.8100,,33.8112,33.8104,,33.8123,33.8118,5.9008,,6.2372,6.3181,6.0046,,6.2790,6.1678,6.2430,257.006,271.1729,268.6875,261.525,282.6957,266.2006,267.4441,0.6351,,3.6677,3.9355,2.6502,,3.0700,,25.3915,,25.3915,,,,,,,,,,,13.3961,13.3978,0.0514,258.112,99.630,101.385,,,,,,,,,,,,
CalCOFI,2105SH,019,,2105_019d,08-May-2021 09:48:28,08-May-2021 01:48:28,32.64844,-119.48316,090.0 053.0,090.0,053.0,22.000,22.157,,13.4022,,13.4044,,13.4033,33.8104,,33.8116,33.8108,,33.8127,33.8122,5.8788,,6.2141,6.2946,5.9897,,6.2635,6.1526,6.2236,256.045,270.1682,267.6913,260.877,281.6578,265.5479,266.6196,0.6746,,3.8460,4.1844,2.6496,,3.0700,,25.3912,,25.3911,,,,,,,,,,,13.3992,13.4014,0.0540,258.168,99.264,101.142,,,,,,,,,,,,
CalCOFI,2105SH,019,,2105_019d,08-May-2021 09:48:28,08-May-2021 01:48:28,32.64844,-119.48316,090.0 053.0,090.0,053.0,23.000,23.164,,13.3945,,13.3921,,13.3933,33.8109,,33.8121,33.8089,,33.8108,33.8115,5.8884,,6.2242,6.3049,5.9963,,6.2704,6.1594,6.2322,256.463,270.6052,268.1246,261.161,282.1093,265.8340,266.9793,0.6791,,3.8658,4.2127,2.6490,,3.0700,,25.3933,,25.3922,,,,,,,,,,,13.3913,13.3889,0.0566,258.005,99.411,101.225,,,,,,,,,,,,
CalCOFI,2105SH,019,,2105_019d,08-May-2021 09:48:29,08-May-2021 01:48:29,32.64844,-119.48317,090.0 053.0,090.0,053.0,24.000,24.171,,13.3798,,13.3821,,13.3810,33.8095,,33.8107,33.8086,,33.8105,33.8106,5.8822,,6.2177,6.2983,5.9977,,6.2718,6.1608,6.2296,256.191,270.3209,267.8427,261.226,281.8155,265.8994,266.8711,0.6697,,3.8243,4.1535,2.6484,,3.0700,,25.3951,,25.3940,,,,,,,,,,,13.3765,13.3787,0.0592,257.855,99.275,101.230,,,,,,,,,,,,
CalCOFI,2105SH,019,,2105_019d,08-May-2021 09:48:33,08-May-2021 01:48:33,32.64843,-119.48320,090.0 053.0,090.0,053.0,25.000,25.178,,13.3820,,13.3815,,13.3818,33.8091,,33.8103,33.8088,,33.8107,33.8105,5.8638,,6.1985,6.2786,5.9734,,6.2466,6.1360,6.2073,255.393,269.4866,267.0155,260.166,280.9537,264.8318,265.9237,0.6294,,3.6414,3.8995,2.6440,,3.0700,,25.3944,,25.3943,,,,,,,,,,,13.3786,13.3780,0.0622,257.951,98.969,100.818,,,,,,,,,,,,
CalCOFI,2105SH,019,,2105_019d,08-May-2021 09:48:35,08-May-2021 01:48:35,32.64842,-119.48318,090.0 053.0,090.0,053.0,26.000,26.186,,13.3767,,13.3823,,13.3795,33.8100,,33.8112,33.8085,,33.8104,33.8108,5.8105,,6.1427,6.2217,5.9388,,6.2108,6.1008,6.1613,253.070,267.0582,264.6076,258.656,278.4448,263.3109,263.9593,0.6519,,3.7445,4.0413,2.6386,,3.0700,,25.3962,,25.3939,,,,,,,,,,,13.3731,13.3787,0.0650,257.810,98.059,100.234,,,,,,,,,,,,
CalCOFI,2105SH,019,,2105_019d,08-May-2021 09:48:37,08-May-2021 01:48:37,32.64842,-119.48320,090.0 053.0,090.0,053.0,27.000,27.193,,13.3301,,13.3190,,13.3246,33.8077,,33.8089,33.8039,,33.8058,33.8074,5.8515,,6.1856,6.2655,5.9644,,6.2373,6.1269,6.1962,254.852,268.9211,266.4547,259.770,280.3694,264.4330,265.4439,0.5834,,3.4230,3.6097,2.6343,,3.0700,,25.4038,,25.4032,,,,,,,,,,,13.3263,13.3153,0.0676,257.106,98.655,100.533,,,,,,,,,,,,
CalCOFI,2105SH,019,,2105_019d,08-May-2021 09:48:38,08-May-2021 01:48:38,32.64842,-119.48322,090.0 053.0,090.0,053.0,28.000,28.200,,13.3470,,13.3512,,13.3491,33.8044,,33.8056,33.8076,,33.8095,33.8076,5.8312,,6.1644,6.2438,5.8474,,6.1161,6.0078,6.1258,253.973,268.0022,265.5436,254.674,279.4200,259.3003,262.4220,0.6059,,3.5311,3.7514,2.6274,,3.0700,,25.3979,,25.3996,,,,,,,,,,,13.3432,13.3473,0.0702,257.699,98.346,98.628,,,,,,,,,,,,
CalCOFI,2105SH,019,,2105_019d,08-May-2021 09:48:40,08-May-2021 01:48:40,32.64840,-119.48322,090.0 053.0,090.0,053.0,29.000,29.207,,13.3468,,13.3214,,13.3341,33.8073,,33.8085,33.8025,,33.8044,33.8065,5.7354,,6.0642,6.1415,5.7765,,6.0427,5.9356,6.0386,249.796,263.6355,261.2140,251.588,274.9089,256.1921,258.7031,0.6035,,3.5197,3.7363,2.6202,,3.0700,,25.4002,,25.4016,,,,,,,,,,,13.3428,13.3174,0.0728,257.509,96.731,97.371,,,,,,,,,,,,
CalCOFI,2105SH,019,,2105_019d,08-May-2021 09:48:41,08-May-2021 01:48:41,32.64840,-119.48322,090.0 053.0,090.0,053.0,30.000,30.214,,13.2106,,13.1992,,13.2049,33.8038,,33.8050,33.7981,,33.8000,33.8025,5.7141,,6.0419,6.1187,5.7956,,6.0625,5.9550,6.0369,248.863,262.6602,260.2469,252.415,273.9012,257.0250,258.6360,0.4971,,2.9861,3.0658,2.6140,,3.0700,,25.4250,,25.4229,,,,,,,,,,,13.2065,13.1950,0.0754,255.172,96.100,97.445,,,,,,,,,,,,
CalCOFI,2105SH,019,,2105_019d,08-May-2021 09:48:44,08-May-2021 01:48:44,32.64840,-119.48323,090.0 053.0,090.0,053.0,31.000,31.221,,13.1676,,13.1660,,13.1668,33.7993,,33.8005,33.7970,,33.7989,33.7997,5.6913,,6.0181,6.0944,5.7767,,6.0429,5.9358,6.0151,247.871,261.6231,259.2186,251.589,272.8299,256.1931,257.7059,0.4397,,2.6756,2.7041,2.5943,,3.0700,,25.4302,,25.4287,,,,,,,,,,,13.1633,13.1617,0.0781,254.706,95.630,97.060,31,12.907,,,258.34,2.741,1.468,6.06,0.157,1.06,0.74,3.73
CalCOFI,2105SH,019,,2105_019d,08-May-2021 09:48:47,08-May-2021 01:48:47,32.64840,-119.48324,090.0 053.0,090.0,053.0,32.000,32.229,,13.1625,,13.1639,,13.1632,33.7987,,33.7999,33.7973,,33.7992,33.7996,5.6159,,5.9392,6.0139,5.6381,,5.8993,5.7947,5.9043,244.584,258.1869,255.8115,245.552,269.2799,250.1126,252.9621,0.4274,,2.6071,2.6266,2.5687,,3.0700,,25.4307,,25.4294,,,,,,,,,,,13.1581,13.1595,0.0809,254.679,94.352,94.727,,,,,,,,,,,,
CalCOFI,2105SH,019,,2105_019d,08-May-2021 09:48:48,08-May-2021 01:48:48,32.64840,-119.48324,090.0 053.0,090.0,053.0,33.000,33.236,,13.1074,,13.0758,,13.0916,33.7999,,33.8011,33.7906,,33.7925,33.7968,5.5187,,5.8376,5.9101,5.5692,,5.8280,5.7245,5.8173,240.350,253.7607,251.4227,242.548,264.7072,247.0870,249.2549,0.3874,,2.3791,2.3745,2.5580,,3.0700,,25.4427,,25.4418,,,,,,,,,,,13.1029,13.0713,0.0835,253.572,92.616,93.396,,,,,,,,,,,,
CalCOFI,2105SH,019,,2105_019d,08-May-2021 09:48:49,08-May-2021 01:48:49,32.64838,-119.48325,090.0 053.0,090.0,053.0,34.000,34.243,,12.9853,,13.0023,,12.9938,33.7958,,33.7970,33.7879,,33.7898,33.7934,5.4739,,5.7907,5.8623,5.5548,,5.8131,5.7099,5.7861,238.391,251.7128,249.3921,241.921,262.5914,246.4555,247.9238,0.3341,,2.0633,2.0386,2.5450,,3.0700,,25.4639,,25.4544,,,,,,,,,,,12.9807,12.9977,0.0860,251.572,91.630,93.013,,,,,,,,,,,,
CalCOFI,2105SH,019,,2105_019d,08-May-2021 09:48:51,08-May-2021 01:48:51,32.64838,-119.48326,090.0 053.0,090.0,053.0,35.000,35.250,,12.8947,,12.8935,,12.8941,33.7893,,33.7905,33.7852,,33.7871,33.7888,5.4503,,5.7660,5.8371,5.5271,,5.7844,5.6817,5.7594,237.364,250.6391,248.3276,240.708,261.4823,245.2338,246.7807,0.2227,,1.3594,1.3366,2.5226,,3.0700,,25.4768,,25.4738,,,,,,,,,,,12.8899,12.8888,0.0885,250.366,91.061,92.339,,,,,,,,,,,,
CalCOFI,2105SH,019,,2105_019d,08-May-2021 09:48:53,08-May-2021 01:48:53,32.64838,-119.48326,090.0 053.0,090.0,053.0,36.000,36.258,,12.8645,,12.8567,,12.8606,33.7864,,33.7876,33.7828,,33.7847,33.7862,5.3879,,5.7008,5.7704,5.4769,,5.7324,5.6306,5.7005,234.643,247.7946,245.5071,238.522,258.5436,243.0321,244.2696,0.2253,,1.3765,1.3529,2.5002,,3.0700,,25.4805,,25.4793,,,,,,,,,,,12.8596,12.8519,0.0910,250.039,89.960,91.431,,,,,,,,,,,,
CalCOFI,2105SH,019,,2105_019d,08-May-2021 09:48:55,08-May-2021 01:48:55,32.64838,-119.48327,090.0 053.0,090.0,053.0,37.000,37.265,,12.8131,,12.8099,,12.8115,33.7868,,33.7880,33.7832,,33.7851,33.7866,5.3612,,5.6728,5.7419,5.4594,,5.7142,5.6128,5.6774,233.480,246.5788,244.3016,237.757,257.2876,242.2616,243.2816,0.1779,,1.0595,1.0542,2.4862,,3.0700,,25.4910,,25.4889,,,,,,,,,,,12.8082,12.8049,0.0936,249.066,89.420,91.050,,,,,,,,,,,,
CalCOFI,2105SH,019,,2105_019d,08-May-2021 09:48:57,08-May-2021 01:48:57,32.64838,-119.48329,090.0 053.0,090.0,053.0,38.000,38.272,,12.7766,,12.7751,,12.7759,33.7854,,33.7866,33.7828,,33.7847,33.7857,5.3378,,5.6484,5.7169,5.4123,,5.6655,5.5648,5.6409,232.461,245.5135,243.2454,235.706,256.1870,240.1958,241.7206,0.1377,,0.7823,0.8009,2.4630,,3.0700,,25.4971,,25.4954,,,,,,,,,,,12.7714,12.7700,0.0961,248.510,88.963,90.200,,,,,,,,,,,,
CalCOFI,2105SH,019,,2105_019d,08-May-2021 09:49:00,08-May-2021 01:49:00,32.64838,-119.48330,090.0 053.0,090.0,053.0,39.000,39.279,,12.7296,,12.7236,,12.7266,33.7828,,33.7840,33.7815,,33.7834,33.7837,5.2231,,5.5284,5.5944,5.2636,,5.5114,5.4134,5.5039,227.464,240.2897,238.0657,229.228,250.7903,233.6712,235.8685,0.1239,,0.6853,0.7139,2.4306,,3.0700,,25.5043,,25.5045,,,,,,,,,,,12.7243,12.7184,0.0986,247.846,86.965,87.628,,,,,,,,,,,,
CalCOFI,2105SH,019,,2105_019d,08-May-2021 09:49:01,08-May-2021 01:49:01,32.64838,-119.48330,090.0 053.0,090.0,053.0,40.000,40.287,,12.6362,,12.6255,,12.6309,33.7806,,33.7818,33.7798,,33.7817,33.7818,5.1361,,5.4374,5.5015,5.2294,,5.4760,5.3786,5.4401,223.670,236.3234,234.1331,227.732,246.6927,232.1644,233.1488,0.1271,,0.7079,0.7341,2.4128,,3.0700,,25.5209,,25.5224,,,,,,,,,,,12.6309,12.6202,0.1011,246.288,85.349,86.880,,,,,,,,,,,,
CalCOFI,2105SH,019,,2105_019d,08-May-2021 09:49:02,08-May-2021 01:49:02,32.64838,-119.48330,090.0 053.0,090.0,053.0,41.000,41.294,,12.5978,,12.5970,,12.5974,33.7841,,33.7853,33.7809,,33.7828,33.7841,5.0982,,5.3978,5.4611,5.2143,,5.4604,5.3632,5.4122,222.018,234.5964,232.4207,227.075,244.9086,231.5027,231.9617,0.1232,,0.6803,0.7095,2.3999,,3.0700,,25.5312,,25.5288,,,,,,,,,,,12.5924,12.5915,0.1035,245.340,84.654,86.579,,,,,,,,,,,,
CalCOFI,2105SH,019,,2105_019d,08-May-2021 09:49:03,08-May-2021 01:49:03,32.64837,-119.48331,090.0 053.0,090.0,053.0,42.000,42.301,,12.5724,,12.5704,,12.5714,33.7836,,33.7848,33.7801,,33.7820,33.7834,5.1102,,5.4103,5.4739,5.2084,,5.4543,5.3572,5.4156,222.540,235.1421,232.9618,226.814,245.4723,231.2398,232.1008,0.1189,,0.6499,0.6824,2.3862,,3.0700,,25.5358,,25.5334,,,,,,,,,,,12.5668,12.5648,0.1060,244.928,84.808,86.431,,,,,,,,,,,,
CalCOFI,2105SH,019,,2105_019d,08-May-2021 09:49:06,08-May-2021 01:49:06,32.64836,-119.48333,090.0 053.0,090.0,053.0,43.000,43.309,,12.5327,,12.5263,,12.5295,33.7822,,33.7834,33.7792,,33.7811,33.7823,4.9943,,5.2891,5.3501,4.9979,,5.2362,5.1429,5.2465,217.488,229.8608,227.7251,217.648,240.0161,222.0078,224.8665,0.1141,,0.6159,0.6522,2.3447,,3.0700,,25.5424,,25.5413,,,,,,,,,,,12.5270,12.5205,0.1085,244.322,82.815,82.863,,,,,,,,,,,,
CalCOFI,2105SH,019,,2105_019d,08-May-2021 09:49:09,08-May-2021 01:49:09,32.64836,-119.48334,090.0 053.0,090.0,053.0,44.000,44.316,,12.3617,,12.3512,,12.3565,33.7825,,33.7837,33.7768,,33.7787,33.7812,4.8412,,5.1290,5.1866,4.8939,,5.1285,5.0371,5.1119,210.818,222.8879,220.8113,213.111,232.8125,217.4382,219.1248,0.1236,,0.6832,0.7120,2.3129,,3.0700,,25.5757,,25.5733,,,,,,,,,,,12.3559,12.3454,0.1109,241.172,79.992,80.841,,,,,,,,,,,,
CalCOFI,2105SH,019,,2105_019d,08-May-2021 09:49:10,08-May-2021 01:49:10,32.64836,-119.48336,090.0 053.0,090.0,053.0,45.000,45.323,,12.2858,,12.2810,,12.2834,33.7809,,33.7821,33.7759,,33.7778,33.7800,4.7518,,5.0355,5.0912,4.7980,,5.0292,4.9394,5.0153,206.919,218.8119,216.7698,208.934,228.6016,213.2311,215.0005,0.1179,,0.6428,0.6761,2.2881,,3.0700,,25.5890,,25.5861,,,,,,,,,,,12.2799,12.2751,0.1133,239.919,78.389,79.142,,,,,,,,,,,,
CalCOFI,2105SH,019,,2105_019d,08-May-2021 09:49:12,08-May-2021 01:49:12,32.64834,-119.48338,090.0 053.0,090.0,053.0,46.000,46.330,,12.1474,,12.1380,,12.1427,33.7727,,33.7739,33.7664,,33.7683,33.7711,4.6086,,4.8858,4.9383,4.6619,,4.8882,4.8009,4.8696,200.680,212.2897,210.3028,203.002,221.8635,207.2564,208.7796,0.1092,,0.5810,0.6213,2.2480,,3.0700,,25.6091,,25.6060,,,,,,,,,,,12.1414,12.1320,0.1157,238.027,75.804,76.662,,,,,,,,,,,,
CalCOFI,2105SH,019,,2105_019d,08-May-2021 09:49:14,08-May-2021 01:49:14,32.64834,-119.48338,090.0 053.0,090.0,053.0,47.000,47.338,,12.0117,,12.0036,,12.0077,33.7721,,33.7733,33.7658,,33.7677,33.7705,4.5238,,4.7971,4.8477,4.5740,,4.7971,4.7114,4.7796,196.985,208.4269,206.4727,199.171,217.8729,203.3978,204.9353,0.1119,,0.6002,0.6383,2.2193,,3.0700,,25.6344,,25.6310,,,,,,,,,,,12.0056,11.9975,0.1181,235.633,74.197,75.005,,,,,,,,,,,,
CalCOFI,2105SH,019,,2105_019d,08-May-2021 09:49:15,08-May-2021 01:49:15,32.64834,-119.48338,090.0 053.0,090.0,053.0,48.000,48.345,,11.9163,,11.9085,,11.9124,33.7680,,33.7692,33.7580,,33.7599,33.7646,4.4783,,4.7495,4.7991,4.5311,,4.7527,4.6677,4.7334,194.999,206.3508,204.4142,197.300,215.7280,201.5134,202.9638,0.1305,,0.7318,0.7555,2.1958,,3.0700,,25.6492,,25.6429,,,,,,,,,,,11.9101,11.9023,0.1205,234.245,73.302,74.149,,,,,,,,,,,,
CalCOFI,2105SH,019,,2105_019d,08-May-2021 09:49:17,08-May-2021 01:49:17,32.64834,-119.48339,090.0 053.0,090.0,053.0,49.000,49.352,,11.7315,,11.7246,,11.7281,33.7564,,33.7576,33.7472,,33.7491,33.7534,4.4439,,4.7135,4.7624,4.4923,,4.7125,4.6282,4.6953,193.497,204.7806,202.8573,195.604,214.1058,199.8052,201.3313,0.1067,,0.5632,0.6055,2.1586,,3.0700,,25.6748,,25.6689,,,,,,,,,,,11.7253,11.7184,0.1228,231.825,72.451,73.225,,,,,,,,,,,,
CalCOFI,2105SH,019,,2105_019d,08-May-2021 09:49:21,08-May-2021 01:49:21,32.64833,-119.48341,090.0 053.0,090.0,053.0,50.000,50.360,,11.5831,,11.5401,,11.5616,33.7526,,33.7538,33.7451,,33.7470,33.7504,4.1234,,4.3784,4.4202,4.0874,,4.2931,4.2160,4.3181,179.535,190.1847,188.3849,177.967,199.0268,182.0412,185.2131,0.1076,,0.5696,0.6112,2.0624,,3.0700,,25.6993,,25.7014,,,,,,,,,,,11.5768,11.5338,0.1252,229.504,67.014,66.362,,,,,,,,,,,,
CalCOFI,2105SH,019,,2105_019d,08-May-2021 09:49:22,08-May-2021 01:49:22,32.64832,-119.48340,090.0 053.0,090.0,053.0,51.000,51.367,,11.2507,,11.2306,,11.2407,33.7607,,33.7619,33.7410,,33.7429,33.7524,3.9377,,4.1841,4.2219,4.0128,,4.2159,4.1401,4.1810,171.442,181.7243,179.9962,174.711,190.2863,178.7618,179.3790,0.1019,,0.5288,0.5753,2.0359,,3.0700,,25.7664,,25.7547,,,,,,,,,,,11.2444,11.2243,0.1274,223.116,63.550,64.725,,,,,,,,,,,,
CalCOFI,2105SH,019,,2105_019d,08-May-2021 09:49:23,08-May-2021 01:49:23,32.64832,-119.48341,090.0 053.0,090.0,053.0,52.000,52.374,,11.1142,,11.1106,,11.1124,33.7677,,33.7689,33.7560,,33.7579,33.7634,3.9294,,4.1755,4.2130,4.0147,,4.2178,4.1420,4.1775,171.075,181.3406,179.6157,174.789,189.8900,178.8404,179.2281,0.0860,,0.4143,0.4751,2.0165,,3.0700,,25.7966,,25.7881,,,,,,,,,,,11.1078,11.1042,0.1297,220.262,63.235,64.597,52,10.641,,,162.50,0.574,0.639,17.46,0.508,0.39,1.50,17.35
CalCOFI,2105SH,019,,2105_019d,08-May-2021 09:49:25,08-May-2021 01:49:25,32.64832,-119.48343,090.0 053.0,090.0,053.0,53.000,53.382,,11.0944,,11.0923,,11.0934,33.7682,,33.7694,33.7604,,33.7623,33.7659,3.8825,,4.1264,4.1629,3.9049,,4.1041,4.0302,4.0966,169.030,179.2028,177.4960,170.006,187.6814,174.0229,175.7595,0.0767,,0.3467,0.4165,1.9720,,3.0700,,25.8006,,25.7949,,,,,,,,,,,11.0879,11.0858,0.1319,219.904,62.453,62.808,,,,,,,,,,,,
CalCOFI,2105SH,019,,2105_019d,08-May-2021 09:49:27,08-May-2021 01:49:27,32.64832,-119.48344,090.0 053.0,090.0,053.0,54.000,54.389,,11.0379,,11.0304,,11.0342,33.7829,,33.7841,33.7769,,33.7788,33.7815,3.6443,,3.8773,3.9086,3.6589,,3.8493,3.7798,3.8442,158.659,168.3609,166.7459,159.292,176.4807,163.2318,164.9889,0.0685,,0.2868,0.3648,1.9126,,3.0700,,25.8222,,25.8188,,,,,,,,,,,11.0313,11.0238,0.1341,217.871,58.557,58.779,,,,,,,,,,,,
CalCOFI,2105SH,019,,2105_019d,08-May-2021 09:49:29,08-May-2021 01:49:29,32.64832,-119.48344,090.0 053.0,090.0,053.0,55.000,55.396,,10.9376,,10.9309,,10.9343,33.8093,,33.8105,33.8011,,33.8030,33.8068,3.5893,,3.8198,3.8498,3.6636,,3.8542,3.7846,3.8172,156.256,165.8488,164.2551,159.494,173.8854,163.4353,163.8452,0.1184,,0.6464,0.6793,1.8850,,3.0700,,25.8607,,25.8555,,,,,,,,,,,10.9309,10.9242,0.1363,214.229,57.559,58.740,,,,,,,,,,,,
CalCOFI,2105SH,019,,2105_019d,08-May-2021 09:49:32,08-May-2021 01:49:32,32.64832,-119.48346,090.0 053.0,090.0,053.0,56.000,56.404,,10.8490,,10.8446,,10.8468,33.8249,,33.8261,33.8196,,33.8215,33.8238,3.4738,,3.6990,3.7265,3.5115,,3.6966,3.6297,3.6781,151.227,160.5915,159.0423,152.865,168.4541,156.7586,157.9005,0.0440,,0.1059,0.2104,1.8080,,3.0700,,25.8886,,25.8853,,,,,,,,,,,10.8422,10.8378,0.1385,211.596,55.607,56.202,,,,,,,,,,,,